Location: Unspecified
(43.4354°N, 0.0000°E)
Time: 06:36:26
(UTC+00:00)

Transit 2A - Pass Details

Date: 22 June 2019
Orbit: 594 x 965 km, 66.7° (Epoch: 17 July)

Event Time Altitude Azimuth Distance (km) Brightness Sun altitude
Rises 00:22:25 0° 210° (SSW) 3,608 - -23.0°
Reaches altitude 10° 00:24:56 10° 210° (SSW) 2,684 - -22.9°
Exits shadow 00:29:04 44° 213° (SSW) 1,314 6.7 -22.8°
Maximum altitude 00:31:19 88° 299° (WNW) 969 6.4 -22.8°
Drops below altitude 10° 00:37:38 10° 31° (NNE) 2,660 9.7 -22.6°
Sets 00:40:08 0° 32° (NNE) 3,574 10.6 -22.6°
